Location: *
(43.0409°N, 0.1694°E)
Time: 12:26:00
(UTC+00:00)

ARIANE 5 R/B - Pass Details

Date: 03 October 2023
Orbit: 748 x 794 km, 98.8° (Epoch: 01 December)

Event Time Altitude Azimuth Distance (km) Brightness Sun altitude
Rises 05:15:06 0° 8° (N) 3,226 5.9 -8.7°
Reaches altitude 10° 05:17:29 10° 2° (N) 2,291 5.0 -8.3°
Maximum altitude 05:22:16 46° 291° (WNW) 1,007 2.8 -7.4°
Drops below altitude 10° 05:26:59 10° 219° (SW) 2,261 4.6 -6.6°
Sets 05:29:20 0° 213° (SSW) 3,180 5.4 -6.1°
